• In India
  • List of Countries
  • For 7 days
  • Water Temperature
  • Satellite Maps
  • Weather Map
  • Weather Widgets
  • user-avatar
    Login

    Hourly Weather Elbasan

    Today, 12 December, Tuesday

    Time Temperature Precipitation Wind Pressure Humidity
    00:00 +7°C° 0 mm 4 mps 738 mmHg 85%
    01:00 +7°C° 0 mm 4 mps 737 mmHg 89%
    02:00 +7°C° 0 mm 4 mps 737 mmHg 89%
    03:00 +8°C° 0 mm 3 mps 738 mmHg 89%
    04:00 +8°C° 0 mm 3 mps 738 mmHg 89%
    05:00 +9°C° 0 mm 3 mps 738 mmHg 89%
    06:00 +9°C° 0 mm 3 mps 738 mmHg 89%
    07:00 +9°C° 0 mm 3 mps 738 mmHg 89%
    08:00 +10°C° 0 mm 3 mps 738 mmHg 87%
    09:00 +11°C° 0 mm 3 mps 738 mmHg 85%
    10:00 +12°C° 0 mm 3 mps 738 mmHg 83%
    11:00 +13°C° 0 mm 3 mps 738 mmHg 81%
    12:00 +14°C° 0 mm 3 mps 738 mmHg 79%
    13:00 +14°C° 0 mm 3 mps 738 mmHg 77%
    14:00 +13°C° 0 mm 3 mps 738 mmHg 81%
    15:00 +12°C° 0 mm 3 mps 738 mmHg 84%
    16:00 +13°C° 0 mm 2 mps 738 mmHg 88%
    17:00 +12°C° 0 mm 2 mps 739 mmHg 88%
    18:00 +12°C° 0 mm 2 mps 739 mmHg 89%
    19:00 +10°C° 0 mm 3 mps 739 mmHg 90%
    20:00 +10°C° 0 mm 3 mps 739 mmHg 90%
    21:00 +10°C° 0 mm 2 mps 739 mmHg 89%
    22:00 +10°C° 0 mm 2 mps 740 mmHg 89%
    23:00 +10°C° 0 mm 2 mps 740 mmHg 89%

    Tomorrow, 13 December, Wednesday

    Time Temperature Precipitation Wind Pressure Humidity
    00:00 +10°C° 0 mm 2 mps 740 mmHg 89%
    01:00 +9°C° 0 mm 3 mps 740 mmHg 89%
    02:00 +9°C° 0 mm 3 mps 739 mmHg 89%
    03:00 +9°C° 0 mm 3 mps 739 mmHg 89%
    04:00 +9°C° 0 mm 3 mps 739 mmHg 89%
    05:00 +9°C° 0 mm 3 mps 739 mmHg 89%
    06:00 +9°C° 0 mm 3 mps 739 mmHg 89%
    07:00 +9°C° 0 mm 3 mps 739 mmHg 89%
    08:00 +10°C° 0 mm 3 mps 739 mmHg 85%
    09:00 +12°C° 0 mm 3 mps 739 mmHg 81%
    10:00 +13°C° 0 mm 3 mps 739 mmHg 77%
    11:00 +14°C° 0 mm 3 mps 739 mmHg 74%
    12:00 +14°C° 0 mm 4 mps 738 mmHg 71%
    13:00 +15°C° 0 mm 4 mps 738 mmHg 67%
    14:00 +14°C° 0.1 mm 4 mps 737 mmHg 72%
    15:00 +13°C° 0.1 mm 3 mps 737 mmHg 77%
    16:00 +12°C° 0.1 mm 3 mps 737 mmHg 82%
    17:00 +12°C° 0.4 mm 3 mps 736 mmHg 84%
    18:00 +11°C° 0.4 mm 3 mps 736 mmHg 87%
    19:00 +11°C° 0.4 mm 3 mps 736 mmHg 89%
    20:00 +11°C° 2 mm 3 mps 736 mmHg 91%
    21:00 +10°C° 2 mm 3 mps 736 mmHg 93%
    22:00 +10°C° 2 mm 3 mps 736 mmHg 94%
    23:00 +10°C° 1.8 mm 3 mps 736 mmHg 95%

    Day after tomorrow, 14 December, Thursday

    Time Temperature Precipitation Wind Pressure Humidity
    00:00 +10°C° 1.8 mm 3 mps 736 mmHg 95%
    01:00 +10°C° 1.8 mm 3 mps 736 mmHg 96%
    02:00 +10°C° 0.3 mm 3 mps 736 mmHg 95%
    03:00 +9°C° 0.3 mm 2 mps 736 mmHg 94%
    04:00 +9°C° 0.3 mm 2 mps 735 mmHg 93%
    05:00 +9°C° 0.1 mm 2 mps 736 mmHg 93%
    06:00 +8°C° 0.1 mm 2 mps 736 mmHg 92%
    07:00 +8°C° 0.1 mm 2 mps 736 mmHg 92%
    08:00 +8°C° 0 mm 2 mps 737 mmHg 86%
    09:00 +9°C° 0 mm 2 mps 737 mmHg 81%
    10:00 +10°C° 0 mm 2 mps 737 mmHg 76%
    11:00 +10°C° 0 mm 2 mps 737 mmHg 73%
    12:00 +12°C° 0 mm 2 mps 736 mmHg 71%
    13:00 +12°C° 0 mm 2 mps 736 mmHg 69%
    14:00 +10°C° 0 mm 2 mps 736 mmHg 73%
    15:00 +10°C° 0 mm 2 mps 736 mmHg 78%
    16:00 +9°C° 0 mm 2 mps 736 mmHg 82%
    17:00 +9°C° 0 mm 2 mps 736 mmHg 84%
    18:00 +8°C° 0 mm 2 mps 736 mmHg 87%
    19:00 +8°C° 0 mm 2 mps 736 mmHg 89%
    20:00 +7°C° 0 mm 2 mps 736 mmHg 89%
    21:00 +7°C° 0 mm 2 mps 736 mmHg 88%
    22:00 +7°C° 0 mm 2 mps 736 mmHg 88%
    23:00 +7°C° 0 mm 2 mps 736 mmHg 86%

    15 December, Friday

    Time Temperature Precipitation Wind Pressure Humidity
    00:00 +6°C° 0 mm 2 mps 736 mmHg 83%
    01:00 +6°C° 0 mm 2 mps 735 mmHg 81%
    02:00 +6°C° 0 mm 2 mps 735 mmHg 80%
    03:00 +6°C° 0 mm 2 mps 735 mmHg 80%
    04:00 +7°C° 0 mm 3 mps 734 mmHg 79%
    05:00 +7°C° 0 mm 3 mps 734 mmHg 80%
    06:00 +7°C° 0 mm 3 mps 734 mmHg 80%
    07:00 +8°C° 0 mm 3 mps 734 mmHg 80%
    08:00 +9°C° 0 mm 3 mps 734 mmHg 78%
    09:00 +10°C° 0 mm 3 mps 734 mmHg 76%
    10:00 +11°C° 0 mm 4 mps 734 mmHg 75%
    11:00 +12°C° 0 mm 4 mps 733 mmHg 74%
    12:00 +12°C° 0 mm 4 mps 733 mmHg 74%
    13:00 +13°C° 0 mm 5 mps 732 mmHg 73%
    14:00 +12°C° 0 mm 5 mps 732 mmHg 77%
    15:00 +12°C° 0 mm 4 mps 731 mmHg 81%
    16:00 +11°C° 0 mm 4 mps 731 mmHg 84%
    17:00 +11°C° 0 mm 4 mps 731 mmHg 86%
    18:00 +9°C° 0 mm 5 mps 731 mmHg 87%
    19:00 +9°C° 0 mm 5 mps 731 mmHg 88%
    20:00 +8°C° 0 mm 5 mps 731 mmHg 88%
    21:00 +8°C° 0 mm 5 mps 731 mmHg 88%
    22:00 +8°C° 0 mm 5 mps 731 mmHg 88%
    23:00 +8°C° 0.3 mm 5 mps 730 mmHg 89%

    16 December, Saturday

    Time Temperature Precipitation Wind Pressure Humidity
    00:00 +9°C° 0.3 mm 5 mps 730 mmHg 90%
    01:00 +9°C° 0.3 mm 5 mps 730 mmHg 91%
    02:00 +9°C° 0.5 mm 5 mps 730 mmHg 91%
    03:00 +9°C° 0.5 mm 5 mps 730 mmHg 91%
    04:00 +9°C° 0.5 mm 5 mps 729 mmHg 91%
    05:00 +9°C° 1.4 mm 5 mps 729 mmHg 91%
    06:00 +9°C° 1.4 mm 5 mps 730 mmHg 91%
    07:00 +9°C° 1.4 mm 5 mps 730 mmHg 92%
    08:00 +10°C° 2 mm 5 mps 730 mmHg 91%
    09:00 +10°C° 2 mm 5 mps 730 mmHg 91%
    10:00 +11°C° 2 mm 4 mps 730 mmHg 90%
    11:00 +11°C° 2.5 mm 4 mps 730 mmHg 90%
    12:00 +11°C° 2.5 mm 4 mps 730 mmHg 91%
    13:00 +11°C° 2.5 mm 4 mps 730 mmHg 92%
    14:00 +11°C° 2.9 mm 3 mps 730 mmHg 93%
    15:00 +10°C° 2.9 mm 2 mps 730 mmHg 94%
    16:00 +10°C° 2.9 mm 2 mps 730 mmHg 96%
    17:00 +10°C° 2.1 mm 2 mps 730 mmHg 96%
    18:00 +10°C° 2.1 mm 1 mps 731 mmHg 96%
    19:00 +10°C° 2.1 mm 1 mps 731 mmHg 95%
    20:00 +10°C° 1.4 mm 1 mps 731 mmHg 94%
    21:00 +10°C° 1.4 mm 1 mps 732 mmHg 92%
    22:00 +9°C° 1.4 mm 2 mps 732 mmHg 91%
    23:00 +9°C° 0.5 mm 1 mps 732 mmHg 89%

    17 December, Sunday

    Time Temperature Precipitation Wind Pressure Humidity
    00:00 +9°C° 0.5 mm 1 mps 732 mmHg 88%
    01:00 +9°C° 0.5 mm 1 mps 732 mmHg 86%
    02:00 +9°C° 0.2 mm 1 mps 732 mmHg 84%
    03:00 +9°C° 0.2 mm 1 mps 732 mmHg 83%
    04:00 +8°C° 0.2 mm 1 mps 732 mmHg 81%
    05:00 +8°C° 0 mm 1 mps 733 mmHg 80%
    06:00 +8°C° 0 mm 1 mps 733 mmHg 78%
    07:00 +7°C° 0 mm 1 mps 733 mmHg 77%
    08:00 +9°C° 0 mm 1 mps 733 mmHg 74%
    09:00 +10°C° 0 mm 1 mps 733 mmHg 70%
    10:00 +10°C° 0 mm 2 mps 734 mmHg 67%
    11:00 +10°C° 0 mm 2 mps 733 mmHg 65%
    12:00 +12°C° 0 mm 2 mps 733 mmHg 63%
    13:00 +12°C° 0 mm 2 mps 733 mmHg 60%
    14:00 +10°C° 0 mm 2 mps 733 mmHg 65%
    15:00 +10°C° 0 mm 2 mps 733 mmHg 69%
    16:00 +9°C° 0 mm 2 mps 733 mmHg 73%
    17:00 +8°C° 0 mm 2 mps 733 mmHg 75%
    18:00 +7°C° 0 mm 2 mps 733 mmHg 77%
    19:00 +7°C° 0 mm 2 mps 734 mmHg 78%
    20:00 +7°C° 0 mm 2 mps 734 mmHg 79%
    21:00 +6°C° 0 mm 2 mps 734 mmHg 79%
    22:00 +6°C° 0 mm 2 mps 734 mmHg 79%
    23:00 +6°C° 0 mm 2 mps 734 mmHg 79%
    Show more